Regional Weather Roundup
Issued by NWS

Home | Current Version | Previous Version | Text Only | Print | Product List | Glossary Off
Versions: 1 2 3 4 5 6 7 8 9 10 11 12 13 14 15 16 17 18 19 20 21 22 23 24 25 26 27 28 29 30 31 32 33 34 35 36 37 38 39 40 41 42 43 44 45 46 47 48 49 50

608
ASUS44 KMEG 300000
RWRTN
TENNESSEE HOURLY STATE WEATHER ROUNDUP
NATIONAL WEATHER SERVICE MEMPHIS TN
700 PM CDT SAT APR 29 2017

TNZ002-004-019-021-049-052-054-088>092-300100-
WEST TENNESSEE

CITY           SKY/WX    TMP DP  RH WIND       PRES   REMARKS
MEMPHIS INTL   MOCLDY    84  69  60 S13G25    29.81R
NWS MEMPHIS      N/A     84 N/A N/A MISG        N/A
JACKSON        CLEAR     83  68  60 S10G22    29.85S
DYERSBURG      PTCLDY    83  68  60 S9        29.84R
$$

TNZ008-025-027-028-033-062-065-066-300100-
NORTH MIDDLE TENNESSEE

CITY           SKY/WX    TMP DP  RH WIND       PRES   REMARKS
NASHVILLE      CLOUDY    85  64  49 S14G23    29.94S
CLARKSVILLE    CLEAR     83  64  52 S10       29.89F
SMYRNA         CLOUDY    83  68  60 S7        29.94S
CROSSVILLE     CLOUDY    79  63  57 S8G22     30.05F
$$

TNZ061-075-076-078-094-096-097-300100-
SOUTH MIDDLE TENNESSEE

CITY           SKY/WX    TMP DP  RH WIND       PRES   REMARKS
TULLAHOMA      CLEAR     81  63  54 S6        29.99S
WINCHESTER     MOCLDY    81  66  61 SE8       29.99R
MCMINNVILLE    PTCLDY    82  66  57 VRB7      29.99S
COLUMBIA       CLEAR     82  70  65 S8        29.92F
SHELBYVILLE    CLEAR     82  64  54 S12       29.96F
$$

TNZ017-018-042-046-047-300100-
NORTHEAST TENNESSEE

CITY           SKY/WX    TMP DP  RH WIND       PRES   REMARKS
TRI CITIES     PTCLDY    75  69  81 CALM      30.07R
$$

TNZ012-013-036-069-073-074-300100-
CENTRAL EAST TENNESSEE

CITY           SKY/WX    TMP DP  RH WIND       PRES   REMARKS
KNOXVILLE      MOCLDY    82  59  45 SW8       30.00F
OAK RIDGE      CLOUDY    85  62  46 VRB5      30.01F
GATLINBURG     CLEAR     82  57  42 SW7       30.01F
$$

TNZ083-085-099-300100-
SOUTHEAST TENNESSEE

CITY           SKY/WX    TMP DP  RH WIND       PRES   REMARKS
CHATTANOOGA    CLOUDY    74  70  87 NE3       30.03R
$$

SKY/WX REPORTED AS FAIR MEANS FEW OR NO CLOUDS BELOW
12 THOUSAND FEET.





USA.gov is the U.S. government's official web portal to all federal, state and local government web resources and services.